THORAD AGENA D DEB, 4686

Orbit data source: Space-Track

THORAD AGENA D DEB, 4686 is space debris in SSO originally from a launch on Wed, 08 Apr 1970 UTC launched from the Air Force Western Test Range (AFWTR). Debris objects in space refer to the collection of defunct objects orbiting the Earth. Examples of debris include non-operational satellites, rocket bodies, and fragments generated from explosions, collisions, or faulty payload assembly.

Loading next visibility...
Identifier
4686, 1970-025BK
Orbit
SSO
Country
Flag of USUS
Related business
Manufacturer
Unknown
Mission
Spacecraft
Bus & Motor
Unknown
Mass
Unknown
Launch date (UTC)
1970-04-08 (56 years ago)
Launch vehicle
Unknown
Launch site
Air Force Western Test Range (AFWTR)
Object type
Payload
Rocket body
Debris
Shape & HBR
Unknown shape, 0.1 m
Radar Cross Section
Medium (>0.1 m² and <1 m²)

Expand to show TLE details & history
Last TLE update: 10 hours ago

TLE from 10 hours ago
0 THORAD AGENA D DEB
1 04686U 70025BK  26255.76808527  .00000445  00000-0  67926-3 0  9997
2 04686 100.2051   2.5556 0035490 248.7582 265.2120 13.58059212782590
Epoch: 2026-09-12T18:26Z
TLE epoch observation values (Epoch: 2026-09-12T18:26:02.567Z)
Latitude
26.01912°
Longitude
-80.71206°
Altitude
1,048.083 km
Speed
7.329 km/s
True Right ascension
12h 30m 17s
True Declination
25° 53' 21"
Sunlit
Object was in daylight at epoch
Visualization orbit readout
Latitude
Unknown
Longitude
Unknown
Altitude
Unknown
Speed
Unknown
Apparent Right ascension
Unknown
Apparent Declination
Unknown
Sunlit
N/A
Visualization observer readout
Local Sidereal Time
21:20:28
Azimuth
Unknown
Elevation
Unknown
Doppler factor
Unknown
Orbital elements
Apogee altitude
1,066.398 km
Perigee altitude
1,013.744 km
Semi-major axis
7,418.208 km
Eccentricity
0.00355
Inclination
100.2051°
RAAN
2.5556°
Arg. of periapsis
248.7582°
True anomaly
264.80689°
Mean anomaly
265.212°
Eccentric anomaly
265.00943°
Mean motion
3.39699 °/min
Orbital period
105.98 mins
BSTAR
0.00067926
Loading maneuver chart data...
Computing Atmospheric mass density...
Loading historical data...
Loading historical data...
Loading historical data...
Loading historical data...
Loading historical data...
Loading historical data...
Loading historical data...

Documentation

Showing up to 5 results
|